GFSSGP_con_lsi_096.txt.gz
Lid_Strength_Index
-0 1 -0 1 6 6 9 8 7 7 7 6 5 5 6 5 6 8 1 -0 -1 -1 -1 -1 -1 -2 -2 -2 -2 -2 -2 -2 -2 -2 -2 -2 -2 -2 -2 -2 -2 -2 -2 -2 -2 -2 -2 -1 -1
1 2 1 3 7 9 9 7 8 7 5 4 5 5 5 6 4 3 2 -0 -1 -1 -1 -1 -1 -1 -1 -2 -2 -2 -2 -2 -2 -2 -2 -2 -2 -2 -2 -2 -2 -2 -2 -2 -2 -2 -2 -1 -1
2 3 3 5 7 9 9 7 7 6 5 6 5 4 5 5 3 2 0 -0 -1 -1 -1 -1 -1 -1 -1 -2 -2 -2 -2 -2 -2 -2 -2 -2 -2 -2 -2 -2 -2 -2 -2 -2 -2 -2 -2 -1 -2
2 2 4 7 9 8 7 7 6 6 6 6 5 6 4 2 2 1 -0 -1 -0 -1 -1 -1 -1 -1 -1 -2 -2 -2 -2 -2 -2 -2 -2 -2 -2 -2 -2 -2 -2 -2 -2 -2 -2 -1 -1 -1 -1
3 3 7 8 8 8 7 7 6 6 6 5 4 6 5 2 1 0 -0 -0 -0 -1 -1 -1 -1 -1 -1 -2 -2 -2 -2 -2 -2 -2 -2 -2 -2 -1 -1 -1 -2 -2 -2 -2 -2 -1 1 1 0
4 4 8 9 9 8 7 6 6 5 6 5 5 5 4 1 1 1 -0 -0 -1 -0 -1 -1 1 -0 -1 -1 -2 -2 -2 -2 -2 -2 -1 -2 -2 -2 -2 -1 -1 -2 -2 -2 -1 -1 -0 0 -0
5 6 8 8 9 9 7 6 6 6 6 6 4 6 4 3 1 0 -0 -0 -1 -1 -1 -1 -1 -1 1 -0 -1 -1 -2 -2 -2 -2 -2 -2 -2 -2 -2 -2 -2 -2 -1 -1 -1 -0 0 0 -0
5 6 9 9 9 9 7 6 6 6 6 5 3 6 5 2 1 0 0 0 -0 -1 -1 -1 -1 -1 -1 -2 1 0 -1 -1 -1 -1 -1 -0 -1 -2 -2 -1 -2 -1 -1 -1 -0 0 0 -0 -1
7 8 9 9 9 8 7 7 7 6 6 5 4 5 3 1 1 1 1 1 1 0 -0 -1 -1 -1 -1 -1 -0 1 1 0 -0 0 1 1 -1 -2 -1 -1 -1 -1 -0 -0 -0 1 1 1 1
7 9 9 8 8 8 7 7 7 7 7 6 6 5 5 2 2 3 3 3 2 1 0 -0 -1 -1 -1 -1 -1 -1 -1 -1 -1 -1 -0 -1 -1 -2 -1 0 0 -0 -0 0 1 1 2 2 1
8 9 9 8 8 8 7 8 6 7 7 6 6 5 5 3 3 3 2 2 2 1 0 -0 -1 -1 -1 -1 -1 -1 -1 -1 -1 -1 -1 -0 0 0 -0 -1 -0 0 2 1 2 2 2 2 2
9 9 8 8 8 8 8 7 8 7 6 6 5 5 4 3 3 3 3 2 2 1 1 0 -1 -1 -1 -1 -1 -1 -1 -1 -1 -1 -0 -0 1 1 1 0 1 1 2 2 2 3 3 3 4
8 9 8 8 8 8 8 8 8 7 6 6 6 7 5 3 3 2 2 1 1 1 1 1 0 -1 -1 -1 -1 -1 0 -1 -1 -1 -0 -0 1 2 2 2 2 4 4 3 3 4 4 5 6
8 8 8 8 8 8 8 8 8 7 7 7 7 6 5 4 3 2 2 2 2 1 1 1 1 -1 -1 -1 -1 -1 -0 -0 -0 -0 0 -0 1 3 2 4 4 6 6 5 4 4 5 7 9
8 9 8 8 8 8 8 9 9 6 7 7 7 6 6 5 3 3 2 2 1 1 2 3 2 0 0 1 -0 -1 0 0 1 1 0 1 2 3 3 6 6 8 7 6 6 6 6 9 11
9 9 10 9 9 9 8 10 7 7 7 7 6 6 6 6 5 3 2 2 1 1 3 4 4 3 3 2 2 3 3 3 3 1 2 2 3 4 6 9 8 9 8 8 8 7 8 10 11
10 11 11 10 8 9 9 9 7 8 8 7 6 6 6 6 6 5 3 1 1 2 3 4 4 3 4 5 5 5 6 7 8 6 5 4 5 7 6 9 10 9 8 8 8 9 9 11 12
11 12 11 11 9 10 9 10 7 7 8 7 6 6 6 6 6 5 5 3 1 2 3 3 3 3 4 6 7 7 8 9 8 8 9 7 8 8 8 11 11 8 9 10 10 11 11 12 13
11 11 11 10 9 10 10 10 8 7 7 7 6 6 5 5 4 5 6 5 4 3 3 3 3 3 3 6 7 7 7 9 10 8 9 10 9 10 10 11 10 8 10 11 11 12 13 14 13
11 11 11 10 9 10 10 10 9 7 7 7 6 6 5 5 6 7 7 6 6 5 4 4 4 4 4 4 5 7 9 10 10 10 8 9 10 10 11 11 11 11 11 12 12 13 13 13 12
11 11 11 12 10 11 11 11 10 8 8 7 6 6 6 6 7 7 8 7 6 6 5 5 4 4 4 4 6 9 12 12 12 12 12 10 11 11 12 12 13 12 11 12 12 12 13 13 12
12 10 10 11 12 13 11 15 10 8 8 7 6 6 6 7 7 7 8 8 7 6 5 5 5 5 5 6 7 7 9 10 9 11 12 13 13 13 13 14 13 13 12 12 12 12 10 11 13
11 10 10 11 11 12 12 13 11 10 9 8 6 6 7 8 8 8 8 8 7 7 6 5 5 6 7 7 7 7 8 8 9 10 12 14 14 14 15 15 15 14 14 14 13 14 12 11 12
10 10 11 11 11 15 11 12 12 10 9 7 7 8 8 8 9 10 9 9 8 7 7 6 6 6 8 8 8 8 8 10 11 11 13 15 15 15 16 16 16 15 16 14 14 14 13 12 12
10 10 15 17 17 17 13 13 11 8 8 8 8 8 8 9 9 10 10 9 9 8 7 7 6 7 7 7 7 8 9 10 11 13 12 14 16 17 17 17 17 16 17 16 15 14 14 13 14
11 10 14 20 18 14 14 15 11 8 7 7 8 8 9 9 10 10 10 9 9 9 8 7 7 8 8 8 8 9 11 12 12 11 12 14 14 15 17 17 17 18 17 17 17 16 16 14 14
11 13 9 13 16 16 13 11 10 9 9 9 9 9 9 10 10 10 10 10 9 9 9 8 8 8 8 9 10 11 12 12 12 14 14 15 16 17 18 18 18 17 16 17 16 16 16 15 15
10 8 13 13 20 20 14 14 13 10 10 9 9 9 10 10 10 10 10 10 9 9 8 8 8 8 8 9 10 11 12 12 13 14 16 16 17 18 18 18 19 19 18 17 16 17 16 16 16
12 13 12 11 14 18 18 14 10 9 9 10 9 9 9 10 10 10 10 10 10 9 8 8 9 8 9 10 10 12 12 13 14 15 15 16 17 18 18 19 19 19 19 18 18 17 17 17 18
11 11 12 15 17 14 15 15 10 10 9 9 9 10 10 9 10 10 10 10 10 10 9 9 9 9 10 10 11 12 13 14 15 15 16 17 17 18 19 19 19 19 19 18 18 18 17 18 18

GFSSGP_con_lsi_102.txt.gz
Lid_Strength_Index
-2 -0 1 3 9 9 11 10 8 8 8 8 6 7 7 6 8 12 3 1 0 0 -1 -1 -1 -1 -2 -2 -2 -2 -2 -2 -2 -2 -2 -2 -2 -2 -2 -2 -2 -2 -2 -1 -1 -1 -1 -1 -1
1 1 2 5 10 12 11 9 9 7 6 6 6 7 7 8 4 4 3 1 0 -0 -1 -1 -1 -1 -2 -2 -2 -2 -2 -2 -2 -2 -2 -2 -2 -2 -2 -2 -2 -2 -2 -2 -2 -2 -2 -2 -2
1 2 5 8 10 11 11 10 8 6 6 6 7 6 6 7 4 3 1 0 0 0 -0 -1 -1 -1 -2 -2 -2 -2 -2 -2 -2 -2 -2 -2 -2 -2 -2 -2 -2 -2 -2 -2 -2 -2 -2 -2 -2
2 4 5 10 10 10 9 8 7 7 7 6 6 7 5 3 3 2 1 0 1 0 -0 -0 -1 -1 -1 -2 -2 -2 -2 -2 -2 -2 -2 -2 -2 -2 -2 -2 -2 -2 -2 -2 -2 -2 -2 -1 -2
3 4 9 10 10 9 8 7 7 7 7 7 7 7 7 4 2 1 1 1 1 0 -1 -1 -1 -1 -1 -2 -2 -2 -2 -2 -2 -2 -2 -2 -2 -2 -2 -2 -2 -2 -2 -2 -2 -2 -2 -2 -2
6 6 10 11 10 8 8 7 8 7 7 7 8 9 6 2 2 2 1 1 1 0 -0 -1 1 -0 -1 -1 -1 -2 -2 -2 -2 -1 -1 -1 -2 -2 -2 -2 -2 -2 -1 -1 -2 -2 -2 -2 -2
6 8 10 10 10 9 8 7 8 8 8 7 6 9 6 4 2 1 1 1 1 -0 -0 -0 -1 0 1 -0 -1 -1 -2 -2 -2 -2 -2 -2 -2 -3 -3 -2 -1 -1 -1 -0 -1 -1 -2 -2 -2
6 7 10 10 10 10 8 7 7 8 8 6 6 9 8 4 2 1 2 2 1 0 -0 -0 -0 -0 -1 -0 1 -0 -1 -1 -1 -1 -1 -1 -1 -2 -2 -1 -2 -0 -0 -0 -1 -1 -1 -1 -1
6 10 11 10 10 10 7 8 8 7 8 8 6 6 4 2 2 2 3 2 2 1 0 0 -0 -0 -0 -0 1 1 1 -0 -1 -0 0 0 0 -0 -1 -1 -1 -0 0 -0 -0 -1 -0 0 -0
8 10 10 9 9 9 8 8 8 9 9 9 7 5 4 2 3 3 4 3 3 2 1 0 -0 -0 -0 -0 0 -0 0 -1 0 -0 0 -0 -0 -0 -0 0 -0 -0 0 -0 -0 0 0 2 4
9 10 9 9 8 8 8 9 8 9 10 8 8 6 4 4 3 4 3 3 3 2 1 0 0 0 -0 -0 -0 -0 -0 -1 -0 -0 -0 0 1 0 1 2 2 2 3 3 3 3 3 4 5
10 8 9 7 8 8 9 8 9 9 8 7 7 6 5 4 4 4 4 3 3 2 2 1 0 0 0 -0 -0 -0 -0 0 -0 1 1 1 1 1 1 1 2 2 2 3 4 4 5 6 6
10 9 9 8 9 9 8 9 9 9 7 7 7 7 6 5 4 4 3 3 3 3 2 2 1 0 0 0 0 0 -0 0 0 1 0 1 1 2 1 1 2 3 2 3 4 5 6 7 7
8 8 9 8 8 8 9 10 10 9 7 8 7 8 7 6 4 4 3 3 3 2 2 1 1 0 -0 1 0 0 0 0 0 0 1 1 1 1 3 3 4 5 3 4 4 6 8 9 10
8 11 9 9 8 9 9 10 10 8 8 8 8 8 7 7 6 5 4 3 3 2 2 2 1 1 1 1 1 0 0 -0 -0 -0 1 2 2 2 2 5 5 6 5 5 7 8 10 11 11
10 11 13 10 9 9 10 13 9 8 9 9 8 9 8 7 7 6 4 3 3 2 2 2 1 2 2 1 2 1 1 0 1 -0 1 2 3 3 5 6 7 7 6 6 8 10 11 12 13
11 15 13 11 9 9 10 12 9 9 10 9 9 8 7 7 7 7 6 4 3 2 2 2 2 2 1 2 3 3 3 2 2 1 1 1 3 4 5 7 8 7 7 7 8 10 11 12 13
14 13 12 13 10 11 11 12 9 9 8 9 9 8 8 8 7 6 6 5 3 3 2 2 2 2 2 3 5 6 7 7 5 5 3 2 3 5 6 8 8 7 8 8 9 11 12 13 14
11 13 13 12 10 11 11 11 10 9 9 10 9 9 9 8 7 6 6 6 3 3 3 2 3 2 3 5 6 7 8 8 7 7 6 5 5 6 8 8 8 8 8 8 10 12 14 15 14
11 13 13 11 10 11 12 12 10 9 9 9 8 9 8 8 7 7 7 6 4 3 3 3 3 2 3 4 5 6 8 9 9 8 8 8 7 8 9 8 8 8 9 10 12 13 15 15 14
12 13 13 13 11 11 13 14 12 10 9 8 8 7 7 8 8 8 7 7 6 5 4 3 3 2 3 4 8 11 11 12 12 11 10 9 9 9 9 9 8 9 9 10 12 13 14 16 15
13 11 11 12 14 17 12 18 14 11 11 9 8 8 8 8 7 7 7 7 7 6 5 3 3 3 3 3 8 8 9 10 10 10 10 10 10 9 9 9 9 9 9 10 12 12 13 15 15
12 10 11 12 14 14 15 16 15 12 12 11 9 9 8 7 7 7 7 7 7 6 6 4 3 3 4 4 5 7 7 5 8 9 10 11 11 11 10 10 9 10 9 10 11 13 13 13 14
9 10 11 12 13 18 15 15 16 13 12 10 9 8 8 8 8 9 8 7 8 7 6 6 5 5 5 6 6 8 8 7 9 11 11 11 12 12 12 11 11 10 10 11 12 12 12 12 12
10 12 17 19 18 19 14 15 14 11 10 10 9 9 8 8 9 9 9 9 9 8 7 7 7 7 6 7 7 8 7 8 10 11 12 13 14 14 14 13 12 11 11 11 11 12 12 12 12
12 12 16 21 20 18 15 17 14 10 9 9 8 8 8 8 8 9 9 9 9 8 8 8 8 7 7 8 8 8 8 9 10 11 11 12 12 13 13 14 14 13 13 12 12 12 12 12 12
12 13 11 14 17 18 16 13 11 9 9 8 9 8 9 9 9 9 9 9 9 9 9 8 8 8 8 9 9 9 9 10 11 11 11 11 12 13 14 15 15 15 15 14 13 13 13 14 14
11 9 15 15 21 21 17 17 15 12 10 9 9 9 9 9 9 10 10 9 9 9 9 9 8 8 8 8 8 8 9 10 10 11 11 12 13 15 15 16 16 16 16 16 15 15 15 15 15
12 13 12 12 14 19 19 17 11 10 10 10 9 9 9 10 10 10 10 10 10 9 9 9 9 8 8 9 9 10 11 11 12 12 13 14 15 16 17 17 17 17 17 16 16 16 16 16 17
11 12 11 15 17 15 17 15 10 10 10 10 10 9 10 10 10 10 10 10 10 10 10 9 9 9 9 9 9 11 11 12 14 14 15 15 16 16 17 17 17 17 16 16 16 16 16 17 17

GFSSGP_con_lsi_105.txt.gz
Lid_Strength_Index
1 3 3 5 9 11 14 12 11 10 10 9 7 7 7 7 9 12 5 1 0 -0 -1 -1 -1 -2 -2 -2 -2 -2 -2 -2 -2 -2 -2 -2 -2 -2 -2 -2 -2 -3 -2 -1 -1 -2 -2 -2 -2
3 2 4 8 12 15 14 12 10 10 8 7 7 8 8 9 5 6 3 0 0 -0 -1 -1 -1 -1 -2 -2 -2 -2 -2 -2 -2 -2 -2 -2 -2 -2 -2 -2 -2 -2 -2 -2 -2 -2 -2 -2 -2
3 3 8 10 12 14 14 11 9 9 8 8 8 7 7 7 5 5 2 0 0 -0 -1 -1 -1 -1 -2 -2 -2 -2 -2 -2 -2 -2 -2 -2 -2 -2 -2 -2 -2 -2 -2 -2 -2 -2 -2 -2 -2
5 6 9 12 14 12 12 10 9 9 8 7 7 7 6 4 4 2 1 0 0 -0 -1 -0 -1 -1 -2 -2 -2 -2 -2 -2 -2 -2 -2 -2 -2 -2 -2 -2 -2 -2 -2 -2 -2 -2 -2 -2 -2
6 8 11 13 13 12 10 8 8 9 9 9 8 8 7 5 2 1 2 1 1 0 -0 -1 -1 -1 -1 -2 -2 -2 -2 -2 -2 -2 -2 -2 -2 -2 -2 -2 -2 -2 -2 -2 -2 -2 -2 -2 -2
9 9 13 14 13 11 10 8 8 9 8 9 9 8 7 5 3 2 2 1 -0 0 -0 -1 1 -0 -1 -1 -2 -2 -2 -2 -2 -2 -2 -2 -2 -2 -2 -2 -2 -2 -2 -2 -2 -2 -2 -2 -2
9 11 13 13 13 11 10 8 9 9 9 9 7 9 7 5 4 2 2 1 -0 -0 -0 -0 -0 -0 0 -0 -1 -2 -2 -2 -2 -2 -2 -2 -2 -3 -3 -2 -1 -1 -2 -2 -2 -2 -2 -2 -2
9 10 12 12 12 12 10 9 9 9 10 7 7 9 8 5 4 3 2 1 0 -0 -0 -0 -0 -0 -0 -0 0 -0 -1 -1 -1 -2 -1 -1 -1 -2 -2 -1 -1 -1 -1 -2 -2 -2 -2 -1 -1
9 12 14 13 12 12 10 10 9 8 8 9 7 6 5 3 2 4 5 3 2 1 0 -0 -0 -0 -0 -0 1 1 0 0 -0 -0 0 1 1 0 0 -0 -1 -1 -1 -1 -1 -1 -0 0 1
11 13 12 11 12 12 9 10 9 10 10 10 8 6 4 3 3 4 5 4 3 2 1 -0 -0 -0 -0 -0 1 1 0 -0 -0 -0 0 -0 -0 -0 -0 1 -0 -1 -1 -1 -0 0 1 3 5
11 12 11 11 10 10 10 10 9 10 11 9 9 6 4 5 4 4 4 4 3 2 1 0 -0 -0 -0 -0 0 0 0 0 0 0 -0 0 0 1 1 2 2 3 3 3 3 4 5 5 5
12 10 10 9 9 10 11 9 10 10 9 8 8 6 4 5 5 4 3 4 4 2 2 1 0 -0 -0 -0 -0 -0 -0 0 0 0 1 1 1 2 1 2 3 4 4 4 5 6 6 7 7
11 11 10 9 10 10 9 11 11 10 9 9 7 6 5 5 4 5 4 4 4 2 2 1 1 0 -0 0 0 -0 0 1 1 1 1 1 2 2 2 2 3 4 4 5 5 6 7 8 8
10 10 10 9 10 10 11 11 11 10 9 9 8 7 6 5 4 5 5 4 4 3 2 1 1 0 0 0 0 0 0 1 1 1 1 1 2 2 2 2 3 3 4 5 7 9 10 11 11
9 12 11 10 10 10 10 12 11 10 9 10 10 9 8 6 5 5 4 4 3 3 2 2 2 2 1 1 0 0 0 1 1 1 1 2 2 2 4 4 5 5 5 7 9 10 11 12 12
12 13 15 11 10 10 11 15 11 10 10 10 10 11 9 8 8 5 5 4 4 3 3 2 1 2 1 1 1 1 1 0 1 1 1 2 2 2 4 5 5 5 6 9 10 12 13 13 13
14 17 15 12 10 10 12 14 10 9 10 10 11 10 10 9 9 8 7 4 4 3 3 2 2 2 3 2 2 1 1 1 0 1 1 2 2 3 5 6 6 6 7 9 11 12 13 14 14
16 16 15 15 11 12 13 13 11 10 10 10 10 10 9 9 8 8 8 6 3 3 2 2 2 2 3 4 5 5 4 4 2 2 1 2 3 4 5 7 6 7 8 10 11 12 13 14 15
14 15 16 14 11 12 13 13 12 10 11 11 11 11 10 9 8 8 7 7 4 3 3 3 3 3 4 5 6 7 6 7 7 5 3 2 4 5 6 7 7 7 8 10 11 13 14 15 14
13 14 15 13 11 12 13 13 12 11 11 10 10 10 10 10 9 8 8 8 5 3 3 3 3 3 4 4 7 7 8 8 8 8 6 6 5 6 7 7 7 7 8 10 12 13 14 14 14
14 14 15 14 13 13 14 15 13 12 11 10 9 10 10 10 9 9 9 8 6 3 4 3 3 4 4 6 8 9 10 10 10 10 9 8 7 7 7 7 7 7 8 10 12 13 14 15 14
15 12 12 13 15 18 14 19 15 12 12 11 10 10 10 10 9 9 8 9 7 5 4 4 4 5 5 6 7 7 7 8 9 9 9 9 8 8 9 7 7 8 8 10 11 13 13 13 15
13 11 12 13 15 16 16 18 16 14 13 12 11 9 10 9 9 9 9 8 8 6 6 5 5 4 5 6 5 5 5 5 8 9 9 10 10 9 9 8 8 8 8 9 10 12 13 13 14
10 11 12 13 15 19 16 16 18 15 13 12 11 11 9 10 10 9 9 8 8 8 7 5 5 5 5 6 7 6 6 6 9 9 10 10 11 10 9 9 8 8 8 9 10 11 12 13 13
11 14 18 18 19 20 15 17 15 13 11 10 10 10 10 10 10 10 10 9 8 8 7 6 5 6 6 6 7 8 7 9 9 10 10 11 12 13 11 10 10 9 9 9 10 11 12 12 12
13 13 17 21 20 19 15 18 15 11 10 9 9 9 9 9 9 10 9 10 9 8 7 7 7 7 7 7 8 8 8 10 10 11 12 12 12 12 11 11 11 10 10 10 11 11 11 11 11
13 14 12 16 20 19 17 15 12 10 9 9 10 9 9 10 10 9 9 9 9 8 8 8 8 8 8 8 8 9 9 10 11 11 12 12 13 13 13 12 13 12 12 11 11 11 12 12 12
11 10 15 15 20 21 19 17 15 12 11 10 11 10 10 10 10 10 10 9 9 9 8 9 8 8 9 9 9 9 10 10 11 11 12 13 13 14 14 14 13 13 13 13 12 12 12 12 13
13 14 13 13 15 19 20 18 13 11 11 12 11 11 11 11 11 11 10 10 10 10 9 9 9 9 9 9 9 9 10 11 12 12 12 12 14 15 15 15 15 15 15 14 13 13 13 13 15
12 13 12 16 17 16 16 16 11 11 11 11 11 10 11 11 11 11 11 11 11 10 10 10 10 10 9 9 10 10 11 12 13 13 14 14 15 16 16 16 16 16 16 15 14 15 14 14 15

GFSSGP_con_lsi_108.txt.gz
Lid_Strength_Index
3 5 5 6 9 11 14 13 12 11 11 10 8 7 7 8 9 11 5 1 -0 -0 -1 -1 -1 -2 -2 -2 -2 -2 -2 -2 -2 -2 -2 -2 -2 -2 -2 -2 -2 -2 -2 -2 -2 -2 -2 -2 -2
3 3 5 9 12 15 15 12 12 11 9 8 8 8 8 9 6 4 3 1 -0 -0 -1 -1 -1 -2 -2 -2 -2 -2 -2 -2 -2 -2 -2 -2 -2 -2 -2 -2 -2 -2 -2 -2 -2 -2 -2 -2 -2
3 5 8 10 14 15 15 12 10 10 9 9 9 7 7 8 5 4 2 0 -0 -0 -1 -0 -1 -2 -2 -2 -2 -2 -2 -2 -2 -2 -2 -2 -2 -2 -2 -2 -2 -2 -2 -2 -2 -2 -2 -2 -2
5 8 10 13 14 13 11 10 10 10 9 8 8 8 7 4 5 3 1 0 0 -0 -0 -0 -1 -1 -2 -2 -2 -2 -2 -2 -2 -2 -2 -2 -2 -2 -2 -2 -2 -2 -2 -2 -2 -2 -2 -2 -2
7 9 12 14 14 12 12 10 10 10 10 10 8 8 8 4 3 1 1 0 0 0 -0 -0 -1 -1 -2 -2 -2 -2 -2 -2 -2 -2 -2 -2 -2 -2 -2 -2 -2 -2 -2 -2 -2 -2 -2 -2 -2
9 10 14 15 14 12 11 9 9 10 10 10 8 8 7 4 2 2 1 1 0 0 -0 -0 1 -0 -1 -1 -2 -2 -2 -2 -2 -2 -2 -2 -2 -2 -2 -2 -2 -2 -2 -2 -2 -2 -2 -2 -2
9 12 14 14 13 12 10 10 10 10 9 9 8 9 7 7 3 3 1 0 -0 -0 -0 -0 -0 -0 0 -1 -1 -1 -2 -2 -2 -2 -2 -2 -2 -2 -2 -2 -2 -2 -2 -2 -2 -2 -2 -2 -2
9 11 14 13 13 12 11 10 10 10 10 8 7 9 9 7 4 3 1 1 0 -0 -0 -0 -0 -0 -0 -0 0 -1 -1 -1 -2 -2 -1 -1 -1 -2 -2 -2 -2 -2 -2 -2 -2 -2 -2 -2 -1
9 13 14 13 13 12 11 11 10 9 9 9 8 6 5 5 4 4 4 3 1 1 0 -0 -0 -0 -0 0 1 1 0 -0 -1 -0 1 1 1 1 1 -0 -2 -2 -2 -2 -1 -1 -1 0 1
11 13 13 13 13 12 10 10 10 10 10 10 7 5 4 5 5 5 5 4 3 2 1 -0 -0 -0 0 -0 1 1 1 0 1 1 1 1 1 1 1 1 -1 -1 -1 -1 -1 -0 2 4 5
11 13 11 11 11 10 10 11 10 11 12 10 8 6 4 5 6 5 6 3 3 2 1 0 -0 -0 -0 -0 1 0 1 1 0 0 0 1 1 1 2 2 2 2 3 4 4 5 5 5 6
13 11 11 10 10 10 11 10 12 11 10 9 8 4 4 4 4 5 5 5 3 2 1 0 0 -0 -0 -0 0 0 1 1 1 1 0 1 1 1 3 3 4 4 4 5 6 7 7 7 7
12 12 11 10 10 11 10 12 11 11 9 10 8 5 5 4 4 3 4 4 4 3 2 1 1 0 -0 -0 -0 0 0 1 1 1 2 1 2 2 2 3 4 5 5 6 7 8 8 9 9
11 11 11 10 10 10 11 12 12 11 11 10 8 6 5 5 4 5 4 4 4 2 2 1 1 0 -0 0 -0 0 0 1 2 1 2 2 1 2 3 4 4 5 5 7 8 9 10 11 10
10 12 12 11 11 11 11 13 12 11 11 11 10 9 7 5 5 4 4 3 3 2 2 1 1 1 0 1 -0 0 1 1 2 2 2 2 2 2 2 4 5 5 6 9 10 12 12 13 13
13 13 16 13 11 11 12 15 12 11 11 11 11 12 10 8 6 4 4 4 4 3 2 2 1 1 1 1 0 0 1 1 2 2 2 2 2 2 3 4 4 5 8 10 11 12 13 14 14
14 17 16 13 11 11 13 14 12 11 12 11 11 11 11 11 10 8 5 4 4 4 3 2 1 1 1 1 1 1 1 1 1 2 2 2 2 2 4 5 5 6 9 11 11 13 14 14 15
16 16 16 16 12 13 14 13 11 11 12 11 11 11 11 10 9 8 8 6 4 4 3 2 2 2 1 2 1 1 1 1 1 1 2 2 2 3 5 6 6 6 9 10 12 13 15 14 14
14 15 16 15 12 13 13 13 12 11 12 12 12 12 11 10 8 9 9 8 7 4 3 2 2 3 3 3 3 3 2 4 2 1 2 3 3 4 5 6 6 7 9 10 12 13 14 14 14
14 16 16 14 12 13 14 14 12 12 12 11 10 11 11 11 11 9 9 9 8 4 2 2 2 3 3 3 3 4 6 7 7 6 4 3 4 5 6 6 6 7 8 10 12 13 14 14 14
14 15 15 14 14 15 15 16 14 13 12 11 11 10 9 11 11 10 10 10 10 6 2 2 2 3 3 5 8 10 9 9 9 9 8 7 4 5 6 6 6 6 8 10 12 12 13 14 14
15 12 13 14 15 18 15 19 16 14 12 12 11 11 11 11 11 10 10 10 10 6 3 3 3 3 5 7 6 7 7 7 8 8 9 8 8 6 6 6 6 6 7 9 12 12 12 13 14
13 12 13 14 16 17 18 18 18 15 14 12 11 11 11 11 10 10 10 9 9 6 4 4 4 5 6 6 6 6 7 6 8 8 8 9 9 8 8 7 7 7 7 8 10 11 12 12 13
11 12 13 15 16 19 17 17 19 16 14 14 12 11 11 11 11 10 10 9 9 8 5 5 5 6 6 7 7 6 6 7 9 8 8 9 9 10 9 9 8 7 7 8 10 11 11 12 12
12 15 19 20 20 20 17 18 17 14 12 12 11 10 11 11 11 10 10 9 9 8 7 6 6 7 7 8 8 8 7 6 6 7 7 9 10 12 10 10 9 8 8 8 9 10 11 12 12
13 14 17 22 21 20 17 19 16 13 11 11 10 10 10 11 10 11 10 9 9 8 8 7 6 7 7 8 9 8 8 8 8 9 10 9 9 9 10 10 10 10 8 9 9 10 11 11 12
13 14 13 16 22 20 17 16 13 11 10 11 10 10 10 11 10 10 10 9 9 8 8 7 7 7 7 7 8 8 8 9 9 10 11 11 12 12 12 10 10 10 10 10 10 11 11 12 12
12 11 15 16 21 22 19 18 16 14 13 11 11 11 11 11 10 10 10 10 9 9 8 8 8 8 8 8 8 9 9 10 10 11 12 12 13 13 14 13 12 12 11 11 11 11 12 12 12
13 14 13 14 16 20 22 19 14 13 12 12 11 11 11 11 10 10 11 10 10 10 9 9 9 9 9 9 9 9 10 11 11 11 12 13 14 14 15 14 14 13 12 12 12 12 13 12 12
12 13 13 17 19 18 18 18 12 13 12 11 12 11 11 11 11 11 11 11 11 11 10 10 10 10 10 9 10 10 10 11 12 12 13 14 14 15 15 15 15 14 14 13 13 13 13 12 13

GFSSGP_con_lsi_111.txt.gz
Lid_Strength_Index
2 5 6 6 10 12 15 14 13 12 11 10 9 9 9 8 9 11 5 1 -0 0 -0 -1 -1 -2 -2 -2 -2 -2 -2 -2 -2 -2 -2 -2 -2 -2 -2 -2 -2 -2 -2 -2 -2 -2 -2 -2 -1
4 4 6 9 13 15 15 14 13 11 10 8 8 8 8 10 6 5 3 1 -0 -0 -0 -0 -1 -2 -2 -2 -2 -2 -2 -2 -2 -2 -2 -2 -2 -2 -2 -2 -2 -2 -2 -2 -2 -2 -2 -2 -2
4 6 8 11 14 15 15 13 11 10 9 9 10 7 7 8 5 4 2 0 -0 -0 -0 -0 -1 -2 -2 -2 -2 -2 -2 -2 -2 -2 -2 -2 -2 -2 -2 -2 -2 -2 -2 -2 -2 -2 -2 -2 -2
6 8 10 13 14 14 13 11 10 11 10 8 8 9 6 4 5 3 1 0 0 -0 -0 -0 -1 -2 -2 -2 -2 -2 -2 -2 -2 -2 -2 -2 -2 -2 -2 -2 -2 -2 -2 -2 -2 -2 -2 -2 -2
8 10 13 14 14 12 12 11 10 11 10 10 9 9 9 4 3 1 1 0 0 0 -0 -0 -1 -1 -2 -2 -2 -2 -2 -2 -2 -2 -2 -2 -2 -2 -2 -2 -2 -2 -2 -2 -2 -2 -2 -2 -2
10 11 14 15 14 13 12 11 11 11 11 10 8 8 8 5 3 2 1 1 -0 0 -0 -0 1 -0 -1 -1 -2 -2 -2 -2 -2 -2 -2 -2 -2 -2 -2 -2 -2 -2 -2 -2 -2 -2 -2 -2 -2
11 12 14 14 14 13 10 10 11 11 11 10 6 9 7 6 3 2 2 1 -0 -0 -0 -0 -0 0 0 -0 -1 -1 -2 -2 -2 -2 -2 -2 -2 -2 -2 -2 -2 -2 -2 -1 -2 -2 -2 -2 -2
9 11 14 13 13 13 11 10 10 10 10 9 6 9 10 5 3 2 1 1 0 0 -0 -0 -0 -0 0 -0 0 -0 -1 -1 -2 -2 -1 -1 -2 -2 -2 -2 -2 -2 -2 -2 -2 -2 -2 -2 -1
10 13 15 14 13 12 11 11 11 10 9 9 8 6 5 4 4 2 2 2 1 1 0 1 0 -0 0 0 1 0 -0 -0 -1 -0 0 1 1 1 1 -1 -2 -2 -2 -2 -2 -2 -1 0 1
11 13 13 12 13 12 11 11 10 10 11 9 7 5 5 5 4 4 4 4 3 2 1 0 1 0 0 0 1 1 1 1 1 2 2 2 2 2 1 0 -1 -2 -1 -2 -1 0 2 4 6
12 13 12 12 11 11 10 11 11 11 11 10 8 6 5 6 5 4 3 3 3 2 1 0 -0 0 0 0 1 1 2 2 2 2 2 2 2 2 2 2 2 3 3 4 4 5 5 6 6
13 12 11 10 11 11 11 11 12 11 10 10 8 5 5 5 5 5 5 4 3 2 1 1 0 0 -0 0 0 0 2 2 2 2 1 2 2 4 4 4 4 4 5 7 7 7 7 8 8
13 12 11 11 11 12 11 12 12 12 10 10 9 4 5 4 4 4 4 5 3 3 1 1 0 0 0 0 0 0 1 2 2 2 2 2 2 2 3 5 5 6 7 7 8 8 8 9 9
11 11 12 11 12 11 12 13 12 12 11 11 8 5 5 5 4 6 6 6 4 2 2 1 1 0 0 0 0 1 1 1 3 2 2 2 2 2 3 5 6 6 7 8 9 9 10 11 11
11 13 13 12 12 12 11 13 12 12 12 12 11 9 6 5 5 4 4 4 4 2 2 1 1 1 0 1 0 0 0 1 2 2 2 2 2 2 4 5 5 6 8 10 10 11 12 13 13
13 14 16 14 12 12 13 15 13 11 12 12 12 12 10 8 6 5 4 3 4 3 3 2 1 1 1 0 -0 -0 0 1 2 2 3 2 3 2 4 4 4 6 8 10 11 12 13 14 14
14 18 17 14 12 12 14 15 13 11 13 12 12 12 12 11 10 7 4 4 3 3 2 2 1 1 1 1 0 0 0 1 2 3 3 3 3 3 3 4 5 6 9 10 11 12 13 14 15
16 17 17 16 13 13 14 13 12 11 12 12 12 12 12 11 10 9 8 4 3 4 3 1 2 1 1 1 1 1 1 1 1 2 3 3 2 3 3 5 6 8 9 10 12 12 14 14 14
14 16 16 15 13 13 14 14 12 12 12 12 12 12 12 11 9 10 9 9 6 4 3 2 2 2 1 1 1 1 2 3 2 2 3 3 2 3 4 5 6 8 9 11 12 13 13 14 15
15 16 17 14 13 13 14 14 13 13 12 11 11 11 11 12 12 10 10 10 10 7 3 2 2 2 1 1 1 1 2 4 3 2 2 2 3 4 5 5 6 7 9 11 13 12 13 14 14
16 16 16 15 14 15 15 16 15 13 13 12 11 11 11 11 11 11 11 11 11 10 6 2 1 2 1 1 3 7 8 8 8 8 6 3 3 4 5 5 6 7 8 11 12 12 13 14 14
16 13 14 14 16 18 16 20 17 15 13 13 12 12 12 12 11 11 11 11 11 10 7 3 2 2 2 2 4 4 4 4 6 6 7 7 4 4 5 5 5 6 8 10 11 11 12 13 14
14 12 14 15 17 17 19 18 18 16 15 13 12 12 12 12 12 11 11 10 11 10 7 4 3 2 3 3 3 3 3 5 8 8 7 7 8 7 5 5 5 6 7 8 10 11 12 12 13
11 13 14 15 17 19 18 17 19 17 15 15 13 12 10 11 10 10 10 10 9 7 5 4 4 5 5 4 6 5 6 8 8 9 7 8 8 8 8 7 6 6 6 8 10 11 11 12 11
13 15 19 20 20 20 18 18 17 15 14 14 13 12 11 11 11 10 10 10 9 8 6 5 5 5 5 7 7 6 6 6 7 8 7 8 9 10 9 8 7 7 7 8 9 11 11 12 11
14 14 18 22 21 20 17 19 16 13 12 11 11 11 10 11 11 10 10 10 10 9 8 7 7 7 6 7 8 8 8 8 8 8 8 7 7 7 7 8 8 8 8 9 9 10 11 11 11
13 15 13 17 23 20 18 16 14 12 12 11 11 11 11 11 11 10 10 10 9 9 8 8 7 7 7 7 8 9 9 9 9 9 10 9 10 11 10 9 9 9 9 9 9 10 11 11 11
13 12 16 17 23 24 20 19 17 14 13 11 11 12 11 11 11 10 10 10 9 9 9 8 8 7 7 7 7 8 8 8 9 10 10 11 11 12 13 12 11 11 11 10 10 10 11 11 11
15 15 15 15 17 20 22 19 15 14 12 12 12 11 11 11 11 11 11 10 10 10 9 9 9 9 8 8 8 9 9 10 10 11 11 12 13 13 14 14 14 13 12 12 11 11 12 12 12
13 14 14 17 19 18 18 17 13 12 12 12 12 12 11 11 11 11 10 10 10 10 10 10 10 10 10 9 9 9 10 11 11 12 12 13 13 14 14 15 15 14 13 13 13 13 13 13 13

GFSSGP_con_lsi_114.txt.gz
Lid_Strength_Index
3 5 6 7 11 13 15 14 12 12 12 10 11 11 9 8 9 11 4 1 0 0 -0 -0 -1 -2 -2 -2 -2 -2 -2 -2 -2 -2 -2 -2 -2 -2 -2 -2 -2 -2 -2 -2 -2 -2 -2 -2 -1
4 5 7 10 13 15 15 13 13 12 10 7 8 7 8 10 6 5 3 1 -0 -0 -0 -0 -1 -2 -2 -2 -2 -2 -2 -2 -2 -2 -2 -2 -2 -2 -2 -2 -2 -2 -2 -2 -2 -2 -2 -2 -2
5 7 8 12 15 15 15 14 12 11 9 10 9 7 8 9 6 4 3 0 -0 -0 -0 -0 -1 -2 -2 -2 -2 -2 -2 -2 -2 -2 -2 -2 -2 -2 -2 -2 -2 -2 -2 -2 -2 -2 -2 -2 -2
7 9 10 13 15 14 13 12 11 11 11 9 8 9 7 4 4 3 1 0 0 0 -0 -0 -1 -2 -2 -2 -2 -2 -2 -2 -2 -2 -2 -2 -2 -2 -2 -2 -2 -2 -2 -2 -2 -2 -2 -2 -2
9 11 13 14 14 12 12 11 11 11 10 9 9 9 9 5 3 1 1 0 1 -0 0 -0 -1 -1 -2 -2 -2 -2 -2 -2 -2 -2 -2 -2 -2 -2 -2 -2 -2 -2 -2 -2 -2 -2 -2 -2 -2
10 11 14 15 15 13 11 11 11 12 11 10 8 9 8 5 3 2 1 1 0 -0 0 -0 1 -0 -1 -1 -2 -2 -2 -2 -2 -2 -2 -2 -2 -2 -2 -2 -2 -2 -2 -2 -2 -2 -2 -2 -2
11 13 15 15 14 13 11 10 12 11 11 10 6 9 8 6 3 2 1 1 -0 -0 -0 0 0 0 0 -1 -1 -1 -2 -2 -2 -2 -2 -2 -2 -2 -2 -2 -2 -2 -2 -2 -2 -2 -2 -2 -2
11 12 15 14 14 13 11 10 11 11 11 9 6 9 9 5 3 2 2 1 0 0 -0 -0 0 0 0 0 0 -0 -1 -1 -1 -1 -1 -1 -2 -2 -2 -1 -2 -2 -2 -2 -2 -2 -2 -2 -1
11 13 15 14 13 13 12 11 12 10 10 10 9 7 6 3 3 3 2 2 1 1 0 0 -0 1 0 0 1 0 -0 -0 -0 -0 0 1 1 1 0 -1 -2 -2 -2 -1 -2 -2 -1 -0 -0
11 14 13 12 13 13 11 12 10 10 10 10 8 6 4 3 3 4 4 3 3 2 1 1 1 -0 1 0 1 1 1 1 1 2 2 3 3 2 1 0 -1 -2 -1 -1 -1 0 2 4 5
12 13 12 12 12 11 11 12 11 11 11 10 9 7 5 5 4 4 3 3 3 2 1 0 0 -0 0 1 1 2 2 2 2 3 3 2 2 2 2 2 3 3 3 4 5 6 6 7 6
13 12 12 11 11 11 11 11 12 11 10 10 9 6 5 5 5 4 4 3 3 2 1 1 0 0 0 1 1 2 2 3 3 3 3 3 3 3 4 4 5 5 6 7 7 8 8 8 8
13 13 12 11 12 13 11 12 12 12 10 11 10 5 5 4 4 4 4 4 3 3 2 1 1 1 1 1 1 2 2 2 3 3 3 3 3 4 4 5 5 6 7 8 8 8 9 9 9
11 12 13 12 12 12 13 14 13 12 12 12 9 6 5 5 4 6 6 5 4 2 2 1 1 0 1 1 1 1 2 2 3 3 3 3 3 3 4 5 6 7 7 8 9 10 10 11 11
12 13 13 13 12 12 12 13 13 12 13 12 11 9 6 6 6 5 4 5 4 3 2 2 1 1 1 1 0 1 1 1 2 3 3 3 3 3 3 5 6 7 8 10 10 10 11 11 12
13 14 16 14 12 13 14 16 13 12 13 12 12 13 10 7 6 5 5 5 5 4 3 2 1 1 1 1 1 0 1 2 2 2 3 3 3 3 4 4 5 7 8 10 9 11 12 12 13
15 18 17 14 12 13 14 15 13 12 12 13 13 13 12 12 11 8 5 4 4 4 2 2 2 1 1 1 1 0 1 1 2 2 2 3 3 4 4 5 5 7 9 10 10 12 12 12 13
16 17 17 16 14 13 15 14 12 12 13 12 13 12 12 11 11 10 9 4 3 3 2 1 1 2 1 0 1 1 1 1 2 2 2 3 3 3 4 5 6 8 9 10 11 12 12 12 13
14 16 17 16 14 14 15 14 12 12 13 12 12 12 11 11 9 10 10 10 6 4 3 1 2 2 2 1 2 2 2 2 2 2 2 3 3 4 4 5 6 8 10 10 11 13 13 14 14
15 16 17 15 13 14 15 14 13 13 13 12 11 11 11 11 11 11 10 11 10 6 3 2 1 1 1 1 1 1 1 2 1 2 2 3 3 4 4 5 6 7 9 11 12 13 13 14 13
16 16 17 15 15 15 16 17 15 14 14 13 12 11 11 11 11 11 11 11 11 11 6 3 1 1 1 1 1 6 6 6 6 5 3 3 3 4 4 4 6 7 8 11 12 12 12 15 14
16 14 14 15 16 18 16 20 17 15 14 14 12 12 12 13 12 12 11 12 12 12 10 6 2 2 1 1 1 2 2 3 3 3 3 3 3 3 4 5 5 7 8 10 11 11 11 12 14
14 13 14 15 17 18 19 19 18 16 15 13 12 13 13 12 12 13 12 11 11 11 11 8 4 2 2 1 1 2 2 2 5 5 5 5 5 4 4 4 5 6 7 8 10 11 11 11 12
12 13 14 16 17 19 18 18 19 17 15 15 14 13 12 11 11 11 11 10 10 8 8 6 4 3 2 1 1 2 2 5 6 7 6 6 7 7 7 6 5 5 6 7 9 10 10 11 12
14 15 19 20 20 20 18 19 18 15 14 14 13 13 12 11 11 11 11 10 10 8 7 6 4 3 3 3 2 3 3 5 5 6 6 8 7 9 8 7 8 6 5 6 7 10 11 11 12
15 15 18 22 21 20 17 19 17 14 13 12 11 11 11 11 11 11 11 11 10 9 8 6 4 4 4 4 4 5 5 5 6 7 7 7 7 7 8 7 7 6 6 6 8 9 10 11 11
14 16 14 18 24 21 19 17 14 13 13 12 12 12 12 12 11 12 11 11 10 9 9 8 7 7 6 6 7 7 6 7 7 8 8 9 9 10 8 7 8 8 8 8 8 9 11 11 11
13 12 16 17 23 23 20 19 17 15 14 13 12 12 12 11 11 11 11 10 10 10 9 9 8 8 7 6 7 7 8 8 9 10 10 10 10 11 12 10 10 10 10 9 9 10 11 11 11
14 15 14 14 16 19 22 19 16 15 13 13 13 12 11 11 11 11 11 11 10 10 10 10 10 9 8 8 8 8 8 9 9 10 10 11 12 12 13 13 13 12 11 11 10 11 12 12 11
13 14 14 18 20 19 19 18 14 14 13 13 12 11 11 11 11 11 11 11 11 11 11 10 10 9 9 9 9 9 9 10 11 11 11 12 12 13 13 14 14 14 14 12 12 12 12 12 12

GFSSGP_con_lsi_117.txt.gz
Lid_Strength_Index
2 5 5 6 9 11 12 11 10 10 10 9 7 7 7 6 8 9 1 0 -0 -0 -1 -1 -1 -2 -2 -2 -2 -2 -2 -2 -2 -2 -2 -2 -2 -2 -2 -2 -3 -2 -2 -2 -2 -2 -2 -2 -2
4 4 5 8 11 13 13 11 11 10 8 6 8 7 6 7 4 4 3 0 -1 -1 -1 -1 -1 -2 -2 -2 -2 -2 -2 -2 -2 -2 -2 -2 -2 -2 -2 -2 -2 -2 -2 -2 -2 -2 -2 -2 -2
4 6 7 10 13 13 13 11 10 9 6 8 6 5 6 7 4 3 1 -0 -1 -1 -1 -1 -1 -2 -2 -2 -2 -2 -2 -2 -2 -2 -2 -2 -2 -2 -2 -2 -2 -3 -2 -2 -2 -2 -2 -2 -2
6 7 9 11 12 11 11 10 9 9 8 8 6 7 4 3 3 2 -0 -0 -0 -0 -1 -1 -1 -2 -2 -2 -2 -2 -2 -2 -2 -2 -2 -2 -2 -2 -2 -2 -3 -2 -2 -2 -2 -2 -2 -2 -2
8 9 12 13 12 11 11 9 10 9 9 8 7 7 6 3 2 0 0 -0 0 -0 -1 -1 -1 -2 -2 -2 -2 -2 -2 -2 -2 -2 -2 -2 -2 -2 -2 -2 -2 -2 -2 -2 -2 -2 -2 -2 -2
9 10 13 13 12 11 9 9 9 9 9 8 6 7 6 2 2 1 0 0 -0 -0 -1 -1 0 -0 -1 -2 -2 -2 -2 -2 -2 -2 -2 -2 -2 -2 -2 -2 -2 -2 -2 -2 -2 -2 -2 -2 -2
10 12 13 13 13 11 9 9 10 10 9 8 5 7 5 4 2 1 0 -0 -0 -0 -1 -1 -1 -1 0 -1 -1 -2 -2 -2 -2 -2 -2 -2 -2 -2 -2 -2 -2 -2 -2 -2 -2 -2 -2 -2 -2
11 11 13 13 12 11 10 10 9 9 9 7 5 8 6 4 2 1 0 0 0 -0 -1 -1 -1 -1 -1 -1 0 -0 -1 -1 -2 -2 -2 -1 -1 -2 -1 -1 -2 -2 -2 -2 -2 -2 -2 -2 -2
8 12 14 13 12 11 11 10 9 8 9 8 6 6 4 2 2 2 2 2 2 1 -0 -1 -1 -1 -1 -1 0 0 0 -0 -0 -0 0 0 -1 -1 -1 -1 -1 -2 -2 -2 -1 -2 -2 -1 -1
10 13 12 11 11 11 11 10 9 9 9 9 7 5 3 2 2 3 3 4 3 2 1 0 -1 -0 -1 -1 -1 -1 -1 -1 -1 -0 0 0 -0 -1 -1 -0 -1 -1 -1 -1 -1 0 1 2 1
11 12 11 11 11 10 10 10 10 10 10 9 8 6 4 3 3 3 3 3 3 1 1 1 -0 -0 -0 -0 -0 -0 -0 -0 0 1 1 1 0 -1 -1 -1 -0 0 2 2 3 3 3 3 3
12 11 11 10 10 10 10 10 11 10 9 9 8 5 4 4 4 4 3 3 2 2 1 1 1 -0 -0 0 0 0 1 1 1 1 1 1 1 0 0 0 1 1 2 4 4 4 4 5 5
12 12 11 11 11 11 10 11 11 10 9 9 8 5 5 4 4 3 2 2 2 2 1 1 1 -0 -0 1 1 1 1 1 1 2 2 2 1 1 1 2 2 3 4 4 5 4 5 5 6
11 12 12 11 11 11 12 12 12 11 10 11 8 6 4 4 4 4 4 3 2 1 1 0 1 1 -0 1 1 1 1 1 2 2 2 2 1 1 2 3 3 4 4 5 5 5 6 6 6
11 12 12 12 12 12 11 13 12 11 11 11 10 9 6 4 4 4 3 3 2 1 1 1 1 1 0 0 1 1 1 1 2 2 2 2 2 2 2 3 4 5 6 6 7 8 8 8 8
13 13 14 13 11 12 12 14 12 11 12 11 11 11 11 7 4 4 3 3 3 2 2 1 0 1 0 -0 0 1 1 0 1 1 2 3 2 2 3 3 4 6 6 7 8 8 9 10 8
14 16 15 14 12 12 13 14 12 11 12 11 11 12 11 11 9 6 4 3 3 2 2 2 1 1 1 0 1 1 1 1 1 1 1 2 3 3 4 4 5 6 7 8 8 9 9 9 10
16 16 16 15 13 13 14 14 12 12 12 11 11 11 11 11 10 9 8 3 2 2 2 1 1 1 1 1 1 1 2 1 1 2 1 2 2 3 4 4 6 7 8 9 9 10 10 10 11
14 16 16 16 13 14 14 14 12 12 12 12 12 11 11 10 9 9 9 8 4 2 2 1 1 1 1 2 2 2 2 2 2 2 2 2 2 3 4 5 6 8 9 9 10 11 11 12 12
15 16 16 14 13 13 14 14 12 12 12 11 11 11 11 10 10 10 9 9 9 5 2 1 1 1 1 1 1 1 1 1 1 2 2 2 2 3 3 4 6 7 8 9 10 12 12 12 11
16 16 16 15 15 15 16 16 15 13 13 12 12 11 11 11 10 10 10 10 10 10 5 2 1 1 1 0 1 4 3 4 4 2 3 3 3 3 4 4 5 7 8 10 10 11 11 14 13
16 14 14 15 16 18 16 19 16 14 14 13 12 12 12 12 12 11 11 11 10 10 10 5 2 1 1 0 1 2 2 3 2 2 1 2 3 3 4 4 5 6 6 8 9 10 10 11 13
14 13 14 14 16 17 17 18 17 16 15 13 12 12 11 11 10 10 10 9 10 9 10 9 4 1 1 1 1 1 2 1 1 2 3 2 3 3 3 4 5 6 7 8 8 10 10 11 10
12 13 14 16 16 19 18 17 19 16 14 14 13 13 12 11 10 10 10 9 8 6 6 8 7 3 1 1 1 1 2 2 4 5 4 4 6 6 4 5 5 5 6 7 8 9 10 10 9
14 15 18 19 20 20 18 18 17 15 14 14 13 12 11 10 10 10 10 9 9 7 5 5 4 3 1 1 1 1 1 2 3 4 5 7 8 8 7 6 6 6 6 6 7 9 10 9 10
15 15 18 21 21 19 17 19 16 14 13 12 11 11 10 11 10 10 10 10 9 8 6 4 4 3 2 2 3 3 3 3 3 4 5 5 6 7 7 7 7 6 6 6 7 7 8 9 10
14 16 14 18 23 20 18 17 14 13 13 12 11 11 11 11 10 10 10 10 9 9 8 6 5 5 4 4 4 5 4 4 6 7 7 7 7 9 9 7 8 7 6 7 7 8 9 10 10
13 12 16 17 23 23 20 19 17 15 13 12 11 11 11 11 11 10 10 10 9 9 9 8 7 6 6 5 5 6 6 6 6 7 8 8 8 9 8 7 8 8 8 8 8 9 10 11 10
14 15 15 15 17 20 23 19 16 14 14 12 11 11 11 11 11 11 11 11 10 9 9 9 8 7 7 7 7 7 7 8 8 8 7 8 9 9 10 10 10 9 10 10 9 10 11 11 11
12 13 14 16 19 18 18 17 13 14 12 11 11 11 11 11 11 12 11 11 10 10 10 9 9 9 9 8 8 8 8 8 8 8 8 9 9 10 11 11 11 11 11 11 11 11 11 11 12

GFSSGP_con_lsi_120.txt.gz
Lid_Strength_Index
0 1 0 1 6 6 9 9 7 7 7 5 5 6 6 5 7 8 1 -0 -1 -1 -1 -1 -2 -2 -2 -2 -2 -2 -1 -2 -2 -2 -2 -2 -2 -2 -2 -2 -2 -3 -2 -2 -2 -2 -2 -2 -2
2 2 1 3 8 10 10 8 8 6 5 4 5 5 5 6 4 4 2 -0 -1 -1 -1 -1 -1 -2 -2 -2 -2 -2 -2 -2 -2 -2 -2 -2 -2 -2 -2 -2 -3 -2 -2 -2 -2 -2 -2 -2 -2
3 3 3 5 7 9 9 8 6 6 5 5 5 4 5 5 3 3 0 -1 -1 -1 -1 -1 -1 -2 -2 -2 -2 -2 -2 -2 -2 -2 -2 -2 -2 -2 -2 -2 -2 -2 -2 -2 -2 -2 -2 -2 -2
2 3 4 7 9 8 8 7 6 6 5 6 4 6 4 2 3 1 -0 -1 -1 -1 -1 -1 -1 -2 -2 -2 -2 -2 -1 -2 -3 -2 -2 -2 -2 -2 -2 -2 -2 -2 -2 -2 -2 -2 -2 -2 -2
3 4 7 8 9 8 8 7 5 6 6 5 4 6 5 2 1 0 -0 -0 -0 -1 -1 -1 -1 -1 -2 -2 -2 -2 -2 -2 -2 -2 -2 -2 -2 -2 -2 -3 -2 -2 -2 -2 -2 -2 -2 -2 -2
5 5 9 10 9 8 7 6 6 6 6 5 5 5 5 2 2 1 -0 -0 -1 -1 -1 -1 0 -1 -1 -2 -2 -2 -2 -2 -2 -2 -2 -2 -2 -2 -2 -2 -2 -2 -2 -2 -2 -2 -2 -2 -2
6 7 9 9 9 8 7 6 6 6 6 6 4 6 4 3 1 0 -0 -1 -1 -1 -1 -1 -1 -1 -0 -1 -1 -2 -2 -2 -2 -2 -2 -2 -2 -2 -3 -2 -2 -2 -2 -2 -2 -2 -2 -2 -2
5 6 9 9 9 9 6 6 6 6 6 4 3 6 5 3 1 1 0 0 -0 -0 -1 -1 -1 -1 -2 -2 0 -1 -1 -1 -2 -2 -1 -1 -1 -2 -2 -1 -2 -2 -2 -2 -2 -2 -2 -2 -2
6 8 9 9 9 8 6 7 6 6 6 5 3 4 3 1 1 2 2 1 1 0 -0 -1 -1 -1 -1 -2 -0 0 0 -0 -0 -1 -0 -1 -2 -2 -1 -1 -2 -2 -2 -2 -2 -1 -2 -1 -1
6 8 9 7 7 7 7 7 6 6 6 6 5 3 2 2 2 3 3 3 2 1 1 0 -1 -1 -1 -1 -2 -2 -2 -2 -2 -2 -1 -1 -1 -2 -1 -1 -1 -1 -1 -1 -1 0 1 -0 -1
8 8 8 8 8 7 7 7 6 6 7 5 5 4 3 3 3 3 3 2 2 1 1 0 -0 -0 -1 -1 -1 -1 -2 -2 -2 -2 -1 -1 -1 -2 -2 -2 -1 -1 1 -1 -0 -0 -0 -0 -0
8 8 8 8 7 8 7 7 7 6 5 6 4 3 3 4 4 3 3 2 2 2 1 1 -0 -1 -1 -1 -1 -1 -1 -1 -1 -1 -1 -1 -1 -1 -1 -1 -1 -1 -1 0 0 0 0 0 0
9 9 9 8 8 8 8 8 7 7 5 6 6 4 3 3 3 2 2 1 1 2 2 1 -0 0 -0 -1 -1 -1 -1 -1 -1 -1 -0 -0 -1 -1 -1 -1 -1 -0 0 1 1 1 1 1 1
9 9 9 9 9 9 9 9 9 7 7 7 7 5 3 3 3 2 2 2 2 1 1 -0 0 -0 0 -0 -1 -1 -1 -0 -1 -0 0 0 -0 -1 -1 -1 -0 1 1 1 1 1 1 2 2
8 10 9 9 9 9 8 10 9 7 8 8 7 6 4 3 3 3 2 2 1 1 0 0 -0 0 -0 0 -0 -1 -1 -0 0 0 0 1 0 -0 -1 -1 0 1 1 2 2 3 4 4 4
10 9 11 10 9 9 9 10 8 8 8 8 7 7 6 4 3 2 2 1 1 1 1 0 -0 -0 -0 -0 -1 -0 -1 -0 -0 -0 0 1 1 1 0 0 0 1 2 2 3 3 3 4 4
10 12 12 11 9 9 9 10 9 8 8 8 7 7 7 7 5 2 1 1 1 1 1 1 0 0 -0 -0 -0 -0 -0 -1 -1 -1 -0 0 1 1 2 2 2 3 3 4 4 4 4 4 4
12 13 12 11 11 10 10 10 8 8 9 8 7 7 7 7 6 5 3 1 1 1 0 0 0 0 -0 -0 0 0 -0 -0 -1 -1 -0 -0 0 1 3 3 5 5 6 6 6 6 7 6 5
11 12 12 12 11 11 10 10 9 8 8 8 7 7 6 6 5 5 5 4 1 1 1 1 1 0 0 1 1 1 2 1 1 0 -0 -0 1 1 3 3 4 5 6 6 7 7 7 6 6
12 12 12 12 11 11 11 11 10 8 9 7 7 7 6 6 6 5 6 5 6 4 1 1 1 0 1 1 0 0 1 1 1 1 1 0 1 2 3 2 3 5 6 8 7 7 7 7 8
13 13 13 12 12 12 12 12 12 10 10 9 8 7 7 7 6 6 6 6 5 5 4 1 1 1 0 1 0 1 1 2 1 2 1 1 1 2 3 2 3 4 5 7 7 7 8 11 10
14 11 12 12 12 14 12 15 12 11 11 10 9 8 8 8 8 8 7 7 7 6 5 4 2 0 0 0 1 1 2 3 1 1 1 1 1 2 3 3 3 4 6 7 7 7 8 8 12
12 11 11 12 12 13 13 14 12 13 12 10 8 9 9 7 7 7 7 7 6 5 6 6 5 1 0 0 1 1 2 1 1 1 1 1 2 2 3 3 4 5 5 6 6 8 9 9 8
10 10 11 11 12 16 14 14 13 13 12 10 10 9 9 8 7 7 7 6 5 3 3 5 6 4 0 0 1 1 1 2 2 2 1 2 2 2 2 3 4 4 5 6 7 9 9 9 9
10 11 14 15 16 17 15 15 13 11 10 10 9 9 8 7 7 7 7 6 5 3 3 3 5 5 2 1 1 1 1 1 1 2 2 4 4 6 4 4 4 5 5 6 6 8 8 9 9
11 11 14 18 17 15 15 16 13 10 10 10 10 8 7 7 7 7 7 6 6 5 4 3 2 2 2 1 1 1 1 1 2 2 2 3 4 4 5 6 6 6 6 6 7 7 8 8 8
11 13 10 15 18 15 14 13 11 10 10 10 9 8 7 8 7 7 7 7 6 5 5 4 3 2 2 1 1 2 2 2 4 3 3 4 5 7 6 6 6 7 7 6 6 6 7 8 8
10 9 14 13 18 17 15 15 14 12 11 9 9 8 7 7 7 7 7 7 7 6 5 4 5 5 4 3 2 2 3 3 5 5 6 6 6 6 6 5 6 5 6 6 6 7 8 9 9
12 12 12 12 13 15 17 14 11 10 9 9 8 8 7 7 7 7 7 7 7 6 6 6 4 5 5 5 5 6 7 7 7 6 5 5 5 5 5 5 6 6 6 6 7 8 9 10 10
9 11 11 13 15 14 14 14 11 11 9 9 8 8 7 7 7 7 7 7 7 7 7 7 6 6 5 4 4 4 5 5 4 5 5 5 5 6 7 7 7 7 8 8 9 9 9 10 11

GFSSGP_con_lsi_123.txt.gz
Lid_Strength_Index
0 1 0 1 6 7 9 8 6 7 7 5 4 5 6 5 6 10 1 -0 -1 -0 -1 -1 -2 -2 -2 -1 -1 -2 -2 -2 -2 -2 -2 -2 -2 -2 -2 -2 -3 -2 -2 -2 -2 -2 -2 -2 -2
2 2 1 3 8 10 9 7 7 6 5 4 4 4 5 6 3 3 2 -0 -1 -1 -1 -1 -1 -2 -2 -2 -2 -2 -2 -2 -2 -2 -2 -2 -2 -2 -2 -2 -2 -3 -2 -2 -2 -2 -2 -2 -2
3 2 3 6 8 10 9 7 6 5 4 4 5 4 4 5 3 2 0 -0 -1 -1 -1 -1 -1 -2 -2 -2 -2 -1 -2 -2 -2 -2 -2 -2 -2 -2 -2 -2 -2 -2 -2 -2 -2 -2 -2 -2 -2
2 3 3 7 9 7 7 6 5 5 5 4 4 6 3 2 2 1 -0 -1 -0 -1 -1 -1 -1 -2 -2 -2 -2 -1 -2 -2 -2 -2 -2 -2 -2 -2 -2 -2 -2 -2 -2 -2 -2 -2 -2 -2 -2
2 3 7 8 8 7 6 5 5 5 5 5 4 6 5 2 1 0 0 -0 0 -0 -1 -1 -1 -1 -2 -2 -2 -2 -2 -2 -2 -2 -2 -2 -3 -2 -2 -2 -2 -2 -2 -2 -2 -2 -2 -2 -2
5 4 8 9 8 7 6 5 5 5 5 5 5 5 5 2 1 1 -0 -0 -1 -0 -1 -1 0 -1 -1 -2 -2 -2 -2 -2 -2 -2 -2 -2 -2 -2 -2 -2 -2 -2 -2 -2 -2 -2 -2 -2 -2
6 7 8 8 8 8 7 5 5 6 6 6 4 6 4 3 1 0 0 -0 -1 -1 -0 -1 -1 -1 -0 -1 -1 -1 -2 -2 -2 -2 -2 -2 -2 -3 -2 -2 -2 -2 -2 -2 -2 -2 -2 -2 -2
5 6 8 7 8 8 6 5 5 5 6 3 3 6 5 3 1 0 0 0 0 -0 -0 -1 -1 -1 -1 -1 0 -0 -1 -1 -2 -2 -1 -1 -1 -2 -2 -2 -2 -2 -2 -2 -2 -2 -2 -2 -2
4 8 9 8 8 7 5 6 5 5 5 4 3 4 3 1 1 2 2 1 1 0 0 -0 -1 -1 -1 -1 -0 0 0 -0 -1 -1 -0 -0 -1 -1 -1 -1 -2 -2 -2 -2 -2 -2 -2 -1 -1
6 7 7 6 5 6 6 6 6 6 6 5 4 3 2 2 2 3 3 3 2 2 1 1 -0 -1 -1 -1 -1 -1 -1 -1 -1 -2 -1 -1 -1 -1 -1 -0 -1 -1 -1 -1 -1 -0 -0 -1 -1
6 8 7 7 6 5 6 6 5 6 7 5 5 4 3 3 3 3 3 2 2 1 1 0 -0 -1 -1 -1 -1 -1 -1 -1 -1 -1 -1 -1 -1 -1 -1 -1 -1 -1 0 -0 -0 -0 -1 -0 -0
8 7 7 7 7 6 6 5 6 5 5 4 4 3 3 3 3 3 3 2 2 2 1 0 -0 -0 -0 -1 -1 -1 -1 -1 -1 -1 -1 -1 -1 -1 -1 -1 -1 -1 -1 -0 -0 -0 -0 -0 -0
8 8 8 7 7 6 6 6 6 6 4 5 4 3 3 3 3 2 2 1 1 2 1 0 -0 -0 -0 -0 -1 -1 -1 -1 -1 -1 -1 -1 -1 -1 -1 -1 -1 -1 -1 -0 -0 -0 0 0 0
7 7 8 8 8 7 7 7 7 5 4 5 5 4 3 3 3 2 2 2 2 1 1 0 0 -0 -0 -0 -0 -0 -1 -1 -1 -1 -1 -0 -1 -1 -1 -1 -1 -1 -0 -0 -0 0 0 1 1
8 9 8 8 8 9 7 9 9 5 6 6 6 5 4 3 2 2 2 2 1 1 1 1 0 -0 0 -0 -0 -0 -1 -1 -1 -1 -1 0 -0 -0 -1 -1 -1 -0 -0 0 0 0 0 1 1
9 8 11 8 8 8 8 10 7 6 7 7 6 6 5 4 2 2 2 1 1 1 1 0 0 0 1 0 -0 -0 -1 -1 -0 -1 -1 0 0 0 -0 -0 -0 -0 1 1 1 2 2 2 2
9 12 11 11 8 8 9 10 7 7 7 7 6 6 6 6 4 2 1 1 1 1 1 1 0 0 0 0 0 -0 -0 -1 -1 -1 -1 -0 0 1 1 0 0 1 1 2 1 2 2 2 2
12 12 11 11 10 10 10 10 8 7 7 7 6 6 6 6 6 4 2 1 1 1 0 0 0 0 -0 0 -0 0 -0 -0 -1 -1 -1 -0 -0 0 1 1 2 3 3 3 3 4 3 3 3
9 10 11 10 10 10 10 10 9 7 7 7 7 6 6 5 4 4 4 2 1 1 1 1 1 0 0 1 1 1 1 0 0 -0 -1 -1 -0 0 1 1 3 4 4 4 5 5 6 7 4
11 11 11 11 10 10 10 10 9 8 8 7 7 6 6 5 5 4 4 4 3 1 1 1 1 1 0 1 1 1 1 0 0 -0 0 -1 -0 0 1 1 3 4 4 4 6 7 7 5 5
11 12 12 12 11 10 11 12 11 9 8 7 7 6 6 6 5 5 5 5 4 4 2 1 1 1 0 0 0 1 1 1 1 1 0 0 0 0 1 2 3 3 4 4 6 6 6 8 9
13 10 10 12 13 14 11 15 11 10 10 9 9 8 7 6 6 6 6 5 5 4 2 3 1 1 0 0 1 1 2 3 1 1 0 1 1 2 2 2 2 3 4 5 5 6 7 8 10
11 9 10 11 12 13 13 14 12 10 11 10 8 8 7 7 6 6 5 5 5 5 5 4 4 2 0 0 1 1 2 2 1 1 1 1 1 1 1 2 3 4 5 5 6 7 8 8 8
9 10 10 11 12 16 13 14 13 11 11 9 8 8 8 7 6 6 6 5 4 3 3 4 5 5 1 1 1 1 2 2 2 2 2 1 2 2 2 2 3 3 4 5 6 6 8 8 8
9 11 14 15 16 17 13 14 13 10 9 9 9 8 8 7 6 6 5 5 4 2 2 2 4 5 3 1 1 1 1 2 2 1 1 2 3 4 2 2 3 3 4 5 6 8 8 8 8
10 10 13 18 16 15 14 16 13 9 8 9 9 8 6 6 6 6 6 5 5 3 3 2 2 4 3 1 1 1 1 1 1 1 1 2 2 3 3 5 5 5 5 6 6 6 8 8 8
11 12 9 13 16 15 13 12 10 9 9 9 9 8 7 6 6 5 5 5 5 4 3 2 2 2 1 1 1 1 1 2 2 2 2 3 4 6 5 5 6 6 6 7 6 7 8 7 7
9 8 13 12 18 17 15 13 13 11 10 8 9 8 7 6 6 6 6 5 5 5 4 2 2 2 2 2 1 1 2 2 2 4 5 5 6 6 7 6 6 6 6 7 6 6 7 8 8
11 11 11 11 12 15 16 14 9 9 8 8 8 7 6 6 6 6 6 6 5 5 4 3 3 3 4 4 4 4 5 5 5 5 6 6 6 6 5 5 6 5 5 6 6 7 8 9 9
9 11 10 13 15 13 13 13 9 9 8 8 7 6 6 6 6 6 6 6 6 5 5 5 4 3 3 4 4 5 6 6 5 6 5 5 5 5 5 6 6 6 7 7 7 8 9 9 11

GFSSGP_con_lsi_126.txt.gz
Lid_Strength_Index
1 2 2 3 9 9 11 10 7 8 8 7 5 6 7 6 9 12 2 1 0 0 -1 -1 -2 -2 -2 -1 -2 -2 -2 -2 -2 -2 -2 -2 -2 -2 -2 -2 -3 -2 -2 -2 -2 -2 -2 -2 -2
3 3 3 5 10 13 11 9 8 7 6 5 6 6 7 8 4 4 3 0 -0 -0 -0 -1 -1 -2 -2 -1 -2 -2 -2 -2 -2 -2 -2 -2 -2 -2 -2 -2 -3 -2 -2 -2 -2 -2 -2 -2 -2
3 4 5 8 10 12 11 9 8 6 5 6 7 6 6 7 4 3 1 0 -0 -0 -0 -1 -1 -2 -2 -2 -2 -2 -2 -2 -2 -2 -2 -2 -2 -2 -2 -2 -2 -3 -2 -2 -2 -2 -2 -2 -2
4 6 5 9 11 9 9 8 6 7 6 5 6 7 5 3 3 2 0 0 0 -0 -0 -1 -1 -2 -2 -2 -2 -2 -2 -2 -2 -2 -2 -2 -2 -2 -2 -2 -2 -2 -2 -2 -2 -2 -2 -2 -2
4 5 9 10 10 10 9 7 6 7 7 7 6 7 7 3 1 1 1 0 1 0 -0 -1 -1 -1 -2 -2 -2 -2 -2 -2 -2 -2 -2 -2 -2 -2 -2 -2 -2 -2 -2 -2 -2 -2 -2 -2 -2
7 6 10 12 10 9 9 7 6 7 7 7 8 7 7 2 2 1 1 1 0 0 -0 -1 0 -1 -1 -1 -1 -2 -2 -2 -2 -2 -2 -2 -2 -2 -2 -2 -2 -2 -2 -2 -2 -2 -2 -2 -2
7 8 10 10 10 9 8 7 8 8 8 7 6 8 6 4 2 1 1 1 0 -0 -0 -0 -0 -0 -0 -0 -1 -1 -2 -2 -2 -2 -2 -2 -3 -2 -2 -2 -2 -2 -2 -2 -2 -2 -2 -2 -2
7 7 10 9 10 10 8 7 7 8 8 5 5 8 8 4 1 1 1 1 0 0 -0 -0 -0 -0 -0 -0 1 -0 -1 -1 -2 -2 -1 -1 -1 -1 -2 -1 -2 -2 -2 -2 -2 -2 -2 -2 -2
5 9 11 10 9 9 7 8 7 7 7 7 6 5 4 2 2 2 2 2 1 1 0 -0 0 0 -0 -0 1 1 0 -0 -1 -1 -0 -0 -0 -0 -0 -1 -2 -2 -2 -2 -2 -2 -2 -1 -1
8 10 9 7 8 8 7 8 8 9 8 8 6 4 3 3 3 3 3 3 2 2 1 0 -0 0 -0 -0 -0 -0 -0 -0 -0 -0 -0 -0 -0 0 0 0 -1 -1 -1 -1 -1 -1 -1 -0 1
8 9 9 8 7 6 7 8 7 9 9 8 7 5 4 4 4 4 3 3 2 2 1 0 0 0 -0 0 -0 -0 -0 0 0 -0 -0 0 0 1 0 1 0 0 1 1 1 1 1 1 1
10 8 8 7 8 7 7 7 8 8 9 6 6 3 4 4 4 4 3 3 2 2 1 0 0 0 0 -0 0 0 0 0 -0 0 0 0 1 1 0 0 0 1 1 1 1 1 1 1 1
9 9 8 8 8 8 7 8 8 8 7 7 5 4 4 4 4 3 2 2 2 2 1 1 1 1 0 0 0 0 0 0 0 1 0 1 1 1 1 1 1 1 1 1 2 1 1 2 1
9 9 9 9 9 9 8 9 9 8 7 7 7 5 4 4 4 3 3 3 2 2 1 0 0 -0 1 0 1 1 0 1 0 1 1 1 1 1 1 1 1 1 1 2 2 2 2 2 2
9 11 10 10 9 10 9 11 11 9 7 7 8 8 6 4 3 4 3 3 2 2 1 1 0 -0 0 0 1 1 1 0 1 1 1 1 1 1 1 1 1 2 2 2 2 2 2 3 2
12 12 13 10 9 10 10 13 9 8 9 9 9 9 8 6 4 4 3 2 2 2 1 1 0 0 0 -0 -0 1 0 0 1 1 1 2 2 1 2 2 2 1 2 3 3 3 4 4 4
11 15 13 12 9 10 11 13 10 9 9 10 10 9 8 7 6 5 3 3 2 2 2 1 1 1 0 -0 -0 -0 1 0 1 1 2 2 2 1 1 1 2 3 3 3 4 4 4 5 5
14 14 13 13 11 11 13 12 11 10 10 10 10 10 9 9 8 6 4 3 2 2 2 2 1 1 1 0 -0 -0 0 1 1 1 1 1 1 2 2 1 2 3 4 4 4 5 5 5 5
12 12 13 12 11 12 12 12 11 10 10 10 10 9 9 8 7 7 6 4 3 3 2 2 2 1 1 1 1 1 1 1 1 1 1 1 1 2 2 3 4 5 5 5 6 6 7 7 6
12 13 14 13 11 12 13 12 10 10 10 10 9 9 9 8 8 7 7 6 3 3 3 2 2 1 1 1 1 1 1 0 0 0 0 0 1 2 3 3 4 5 6 6 7 7 8 8 7
13 14 14 13 12 13 14 15 13 11 10 10 9 9 8 8 8 8 7 7 7 4 3 3 2 2 1 1 1 1 1 1 2 1 1 1 1 1 3 3 4 6 5 5 7 8 8 8 8
14 11 12 13 15 17 13 19 15 13 12 11 11 10 9 9 9 9 8 8 8 7 6 7 3 3 2 1 2 2 2 3 1 2 0 0 2 1 1 3 4 5 5 5 6 7 7 7 8
13 11 12 13 15 16 16 18 16 14 13 12 11 11 10 10 9 10 9 8 8 8 8 7 7 6 4 2 2 2 2 1 1 1 1 1 1 1 2 3 3 4 4 5 4 6 7 7 8
10 12 12 13 15 19 16 17 17 15 13 13 13 12 10 10 9 9 8 7 7 6 5 5 7 7 6 3 2 2 2 2 2 2 2 1 1 1 2 2 3 3 3 4 5 5 6 7 7
11 13 18 19 20 20 16 17 16 13 12 13 12 12 11 9 9 9 9 8 6 6 4 4 6 7 7 4 2 2 2 1 2 2 2 2 2 3 2 2 3 3 3 4 5 6 7 7 7
12 13 17 21 20 20 17 20 16 12 12 11 11 11 10 10 9 9 8 7 7 6 5 4 4 6 6 5 3 2 2 3 2 1 2 2 2 3 2 3 3 4 4 5 5 6 7 7 8
13 15 12 16 20 20 17 16 13 11 12 12 12 11 10 9 9 8 8 7 7 6 5 4 4 4 3 3 3 3 3 2 2 2 3 3 4 5 5 5 5 6 6 6 7 7 8 8 7
11 10 15 15 21 22 19 18 17 14 12 11 12 11 10 9 9 8 8 8 7 6 5 4 3 4 4 4 4 4 4 3 3 4 5 5 6 6 7 6 6 7 7 7 7 7 8 8 8
13 13 13 13 15 19 21 18 14 13 12 12 11 10 10 9 9 8 8 8 7 7 6 5 4 4 4 4 5 5 5 4 4 5 5 6 7 6 6 7 7 7 7 6 6 7 8 8 9
11 12 12 15 18 17 17 17 12 12 11 11 11 9 9 8 8 9 8 8 8 7 7 6 5 5 4 4 5 5 5 5 5 5 5 6 6 7 7 8 8 8 8 7 8 8 9 9 10